When you browse on this site, cookies collect data to enhance your experience and personalize the content and advertising you see.
Visit our Privacy Policy to learn more. By continuing to use the site, you agree to this use of cookies and data.
  • In Hungary
  • List of Countries
  • For 7 days
  • Water Temperature
  • Satellite Maps
  • Weather Map
  • News
  • Weather Widgets
  • user-avatar
    Login

    Hourly Weather Flemalle-Haute

    Today, 18 November, Sunday

    Time Temperature Precipitation Wind Pressure Humidity
    00:00 +1°C° 0 mm 4 mps 753 mmHg 67%
    01:00 0°C° 0 mm 4 mps 753 mmHg 68%
    02:00 +1°C° 0 mm 3 mps 753 mmHg 69%
    03:00 +1°C° 0 mm 3 mps 753 mmHg 70%
    04:00 0°C° 0 mm 3 mps 753 mmHg 69%
    05:00 -1°C° 0 mm 4 mps 753 mmHg 69%
    06:00 -1°C° 0 mm 4 mps 753 mmHg 68%
    07:00 0°C° 0 mm 4 mps 753 mmHg 64%
    08:00 +1°C° 0 mm 4 mps 753 mmHg 60%
    09:00 +3°C° 0 mm 4 mps 753 mmHg 56%
    10:00 +4°C° 0 mm 4 mps 752 mmHg 54%
    11:00 +5°C° 0 mm 5 mps 752 mmHg 51%
    12:00 +6°C° 0 mm 5 mps 752 mmHg 48%
    13:00 +6°C° 0 mm 5 mps 752 mmHg 49%
    14:00 +5°C° 0 mm 4 mps 751 mmHg 50%
    15:00 +5°C° 0 mm 4 mps 751 mmHg 51%
    16:00 +4°C° 0 mm 4 mps 751 mmHg 51%
    17:00 +3°C° 0 mm 4 mps 751 mmHg 51%
    18:00 +1°C° 0 mm 4 mps 751 mmHg 51%
    19:00 0°C° 0 mm 4 mps 750 mmHg 51%
    20:00 0°C° 0 mm 4 mps 750 mmHg 50%
    21:00 0°C° 0 mm 4 mps 750 mmHg 49%
    22:00 -1°C° 0 mm 4 mps 750 mmHg 55%
    23:00 -1°C° 0 mm 4 mps 750 mmHg 60%

    Tomorrow, 19 November, Monday

    Time Temperature Precipitation Wind Pressure Humidity
    00:00 -1°C° 0 mm 4 mps 750 mmHg 66%
    01:00 -1°C° 0 mm 4 mps 749 mmHg 73%
    02:00 -1°C° 0 mm 4 mps 749 mmHg 80%
    03:00 -1°C° 0 mm 4 mps 749 mmHg 87%
    04:00 -1°C° 0 mm 4 mps 749 mmHg 87%
    05:00 0°C° 0 mm 4 mps 748 mmHg 87%
    06:00 +1°C° 0 mm 5 mps 748 mmHg 87%
    07:00 +1°C° 0 mm 5 mps 748 mmHg 82%
    08:00 +2°C° 0 mm 6 mps 748 mmHg 77%
    09:00 +2°C° 0 mm 6 mps 747 mmHg 72%
    10:00 +3°C° 0 mm 6 mps 747 mmHg 69%
    11:00 +3°C° 0 mm 7 mps 746 mmHg 65%
    12:00 +4°C° 0 mm 7 mps 746 mmHg 62%
    13:00 +3°C° 0 mm 6 mps 745 mmHg 64%
    14:00 +3°C° 0 mm 6 mps 745 mmHg 65%
    15:00 +3°C° 0 mm 5 mps 744 mmHg 67%
    16:00 +2°C° 0 mm 5 mps 744 mmHg 70%
    17:00 +2°C° 0 mm 5 mps 744 mmHg 74%
    18:00 +1°C° 0 mm 5 mps 743 mmHg 77%
    19:00 +1°C° 0 mm 5 mps 743 mmHg 77%
    20:00 +1°C° 0 mm 5 mps 743 mmHg 76%
    21:00 +1°C° 0 mm 5 mps 743 mmHg 75%
    22:00 0°C° 0 mm 5 mps 742 mmHg 75%
    23:00 0°C° 0 mm 5 mps 742 mmHg 76%

    Day after tomorrow, 20 November, Tuesday

    Time Temperature Precipitation Wind Pressure Humidity
    00:00 0°C° 0 mm 5 mps 742 mmHg 76%
    01:00 0°C° 0 mm 5 mps 741 mmHg 74%
    02:00 -1°C° 0 mm 6 mps 741 mmHg 73%
    03:00 -1°C° 0 mm 6 mps 740 mmHg 72%
    04:00 -1°C° 0 mm 6 mps 740 mmHg 72%
    05:00 -1°C° 0 mm 6 mps 739 mmHg 72%
    06:00 -1°C° 0 mm 6 mps 739 mmHg 72%
    07:00 -1°C° 0 mm 6 mps 739 mmHg 70%
    08:00 -1°C° 0 mm 6 mps 739 mmHg 69%
    09:00 -1°C° 0 mm 7 mps 738 mmHg 68%
    10:00 -1°C° 0 mm 6 mps 738 mmHg 66%
    11:00 +1°C° 0 mm 6 mps 738 mmHg 64%
    12:00 +1°C° 0 mm 6 mps 737 mmHg 62%
    13:00 +1°C° 0.1 mm 6 mps 737 mmHg 65%
    14:00 +1°C° 0.1 mm 5 mps 737 mmHg 68%
    15:00 0°C° 0.1 mm 5 mps 736 mmHg 70%
    16:00 0°C° 0.4 mm 4 mps 736 mmHg 76%
    17:00 0°C° 0.4 mm 4 mps 736 mmHg 81%
    18:00 -1°C° 0.4 mm 4 mps 736 mmHg 86%
    19:00 0°C° 0.3 mm 3 mps 736 mmHg 87%
    20:00 0°C° 0.3 mm 3 mps 736 mmHg 89%
    21:00 0°C° 0.3 mm 3 mps 736 mmHg 91%
    22:00 0°C° 0.2 mm 3 mps 736 mmHg 92%
    23:00 +1°C° 0.2 mm 2 mps 736 mmHg 92%

    21 November, Wednesday

    Time Temperature Precipitation Wind Pressure Humidity
    00:00 +1°C° 0.2 mm 2 mps 736 mmHg 93%
    01:00 +1°C° 0 mm 2 mps 736 mmHg 93%
    02:00 -1°C° 0 mm 3 mps 736 mmHg 93%
    03:00 -1°C° 0 mm 3 mps 736 mmHg 93%
    04:00 -1°C° 0 mm 3 mps 737 mmHg 92%
    05:00 -1°C° 0 mm 3 mps 737 mmHg 91%
    06:00 -2°C° 0 mm 4 mps 738 mmHg 89%
    07:00 -2°C° 0 mm 4 mps 739 mmHg 87%
    08:00 -1°C° 0 mm 4 mps 740 mmHg 84%
    09:00 0°C° 0 mm 4 mps 740 mmHg 82%
    10:00 +2°C° 0 mm 3 mps 741 mmHg 79%
    11:00 +3°C° 0 mm 3 mps 742 mmHg 75%
    12:00 +4°C° 0 mm 3 mps 742 mmHg 72%
    13:00 +4°C° 0 mm 2 mps 742 mmHg 75%
    14:00 +4°C° 0 mm 2 mps 743 mmHg 78%
    15:00 +4°C° 0 mm 1 mps 743 mmHg 82%
    16:00 +2°C° 0 mm 2 mps 743 mmHg 85%
    17:00 +1°C° 0 mm 2 mps 744 mmHg 88%
    18:00 +1°C° 0 mm 2 mps 744 mmHg 92%
    19:00 -1°C° 0 mm 2 mps 744 mmHg 92%
    20:00 -1°C° 0 mm 2 mps 744 mmHg 93%
    21:00 -1°C° 0 mm 2 mps 745 mmHg 94%
    22:00 -1°C° 0 mm 2 mps 745 mmHg 94%
    23:00 -1°C° 0 mm 2 mps 745 mmHg 94%

    22 November, Thursday

    Time Temperature Precipitation Wind Pressure Humidity
    00:00 -2°C° 0 mm 2 mps 745 mmHg 95%
    01:00 -2°C° 0 mm 2 mps 745 mmHg 95%
    02:00 -2°C° 0 mm 2 mps 745 mmHg 95%
    03:00 -2°C° 0 mm 2 mps 745 mmHg 95%
    04:00 -1°C° 0 mm 2 mps 745 mmHg 94%
    05:00 -1°C° 0 mm 2 mps 745 mmHg 94%
    06:00 -1°C° 0 mm 2 mps 745 mmHg 93%
    07:00 +1°C° 0 mm 2 mps 745 mmHg 91%
    08:00 +2°C° 0 mm 2 mps 745 mmHg 90%
    09:00 +2°C° 0 mm 2 mps 746 mmHg 88%
    10:00 +3°C° 0 mm 2 mps 746 mmHg 86%
    11:00 +4°C° 0 mm 2 mps 746 mmHg 85%
    12:00 +5°C° 0 mm 2 mps 746 mmHg 83%
    13:00 +5°C° 0 mm 2 mps 746 mmHg 86%
    14:00 +4°C° 0 mm 2 mps 745 mmHg 88%
    15:00 +4°C° 0 mm 2 mps 745 mmHg 91%
    16:00 +3°C° 0 mm 2 mps 745 mmHg 92%
    17:00 +2°C° 0 mm 2 mps 746 mmHg 93%
    18:00 +1°C° 0 mm 2 mps 746 mmHg 95%
    19:00 +1°C° 0 mm 2 mps 746 mmHg 94%
    20:00 +1°C° 0 mm 2 mps 746 mmHg 94%
    21:00 +1°C° 0 mm 1 mps 746 mmHg 93%
    22:00 +1°C° 0 mm 1 mps 746 mmHg 93%
    23:00 +1°C° 0 mm 1 mps 746 mmHg 93%

    23 November, Friday

    Time Temperature Precipitation Wind Pressure Humidity
    00:00 +1°C° 0 mm 1 mps 746 mmHg 92%
    01:00 +1°C° 0 mm 1 mps 746 mmHg 92%
    02:00 +1°C° 0 mm 1 mps 746 mmHg 91%
    03:00 +1°C° 0 mm 1 mps 746 mmHg 91%
    04:00 +1°C° 0 mm 1 mps 746 mmHg 90%
    05:00 +1°C° 0 mm 1 mps 746 mmHg 90%
    06:00 +1°C° 0 mm 1 mps 747 mmHg 90%
    07:00 +2°C° 0 mm 1 mps 747 mmHg 87%
    08:00 +3°C° 0 mm 1 mps 747 mmHg 85%
    09:00 +4°C° 0 mm 1 mps 747 mmHg 82%
    10:00 +5°C° 0 mm 1 mps 747 mmHg 80%
    11:00 +7°C° 0 mm 1 mps 747 mmHg 77%
    12:00 +8°C° 0 mm 1 mps 747 mmHg 75%
    13:00 +7°C° 0 mm 1 mps 747 mmHg 79%
    14:00 +7°C° 0 mm 1 mps 747 mmHg 83%
    15:00 +6°C° 0 mm 1 mps 747 mmHg 88%
    16:00 +5°C° 0 mm 1 mps 747 mmHg 89%
    17:00 +4°C° 0 mm 1 mps 747 mmHg 90%
    18:00 +3°C° 0 mm 1 mps 747 mmHg 92%
    19:00 +3°C° 0 mm 1 mps 748 mmHg 92%
    20:00 +3°C° 0 mm 1 mps 748 mmHg 92%
    21:00 +3°C° 0 mm 1 mps 748 mmHg 93%
    22:00 +3°C° 0 mm 1 mps 748 mmHg 93%
    23:00 +3°C° 0 mm 1 mps 748 mmHg 93%
    Show more